Location: Eastchurch
(51.4000°N, 0.8667°E)
Time: 06:32:11
(UTC+00:00)

SL-16 R/B - Pass Details

Date: 19 January 2026
Orbit: 841 x 845 km, 71.0° (Epoch: 18 February)

Event Time Altitude Azimuth Distance (km) Brightness Sun altitude
Rises 20:35:13 0° 329° (NNW) 3,415 5.9 -38.4°
Reaches altitude 10° 20:37:40 10° 329° (NNW) 2,476 5.1 -38.8°
Enters shadow 20:39:17 20° 328° (NNW) 1,874 4.3 -39.1°
